Farmville, Virginia, United States (23901)
Lat: 37.30N, Lon: 78.39W
Wx Zone: VAZ060
Local Info
Past Weather Observations for Today

NOTE: This archive is for the closest National Weather Service station to Farmville. Information may differ from the station used for current weather conditions.

Click here for Long-term Archive

Time Weather Temperature Dewpoint Humidity Pressure Winds Precip Visibility
09:15
Clear
77°F / 25°C 59°F / 15°C 54% 30.21 in
(1023 mb)
Calm - 10SM
08:55
Clear
75°F / 24°C 59°F / 15°C 57% 30.21 in
(1023 mb)
NNE 3.5 mph
(NNE 6 kph)
- 10SM
08:35
Clear
73°F / 23°C 59°F / 15°C 61% 30.21 in
(1023 mb)
Calm - 10SM
08:15
Clear
70°F / 21°C 59°F / 15°C 69% 30.21 in
(1023 mb)
Calm - 10SM
07:55
Clear
70°F / 21°C 59°F / 15°C 69% 30.21 in
(1023 mb)
Calm - 10SM
07:35
Clear
68°F / 20°C 59°F / 15°C 73% 30.21 in
(1023 mb)
Calm - 10SM
07:15
Clear
64°F / 18°C 64°F / 18°C 100% 30.18 in
(1022 mb)
Calm - 10SM
06:55
Clear
63°F / 17°C 63°F / 17°C 100% 30.18 in
(1022 mb)
Calm - 7SM
06:35
Partly Cloudy
Fog And Mist
59°F / 15°C 59°F / 15°C 100% 30.18 in
(1022 mb)
Calm - 5SM
06:15
Clear
Fog And Mist
59°F / 15°C 59°F / 15°C 100% 30.18 in
(1022 mb)
Calm - 4SM
05:55
Clear
Fog And Mist
57°F / 14°C 57°F / 14°C 100% 30.18 in
(1022 mb)
Calm - 2 1/2SM
05:35
Clear
Fog And Mist
57°F / 14°C 57°F / 14°C 100% 30.15 in
(1021 mb)
Calm - 2SM
05:15
Partly Cloudy
57°F / 14°C 57°F / 14°C 100% 30.15 in
(1021 mb)
Calm - 7SM
04:55
Mostly Cloudy
Fog And Mist
57°F / 14°C 57°F / 14°C 100% 30.15 in
(1021 mb)
Calm - 4SM
04:35
Fog And Mist
57°F / 14°C 57°F / 14°C 100% 30.15 in
(1021 mb)
Calm - 2 1/2SM
04:20
Fair
N/A N/A N/A 30.15 in
(1021 mb)
Calm -
02:30
Mostly Cloudy
61°F / 16°C 61°F / 16°C 100% 30.15 in
(1021 mb)
Calm - 7SM
02:15
Mostly Cloudy
59°F / 15°C 59°F / 15°C 100% 30.15 in
(1021 mb)
Calm - 7SM
01:55
Clear
61°F / 16°C 61°F / 16°C 100% 30.15 in
(1021 mb)
Calm - 10SM
01:35
Clear
61°F / 16°C 61°F / 16°C 100% 30.15 in
(1021 mb)
Calm - 10SM
01:15
Partly Cloudy
61°F / 16°C 61°F / 16°C 100% 30.15 in
(1021 mb)
Calm - 10SM
00:55
Partly Cloudy
63°F / 17°C 63°F / 17°C 100% 30.15 in
(1021 mb)
Calm - 10SM
00:35
Clear
61°F / 16°C 61°F / 16°C 100% 30.15 in
(1021 mb)
Calm - 10SM
00:15
Partly Cloudy
61°F / 16°C 61°F / 16°C 100% 30.15 in
(1021 mb)
Calm - 10SM
Time Weather Temperature Dewpoint Humidity Pressure Winds Precip Visibility


Weather for websites

WeatherForYou.com, LLC is not responsible for any damages or problems caused by this service. Current weather conditions are obtained from the closest station including government and personal stations which may have varying degrees of accuracy. Weather forecasts are derived from the NOAA NDFD. Like all things, this site belongs to Jesus Christ... He just trusts us to maintain it. If you have any questions or comments email webmaster@weatherforyou.com

Copyright © 2015, WeatherForYou.com LLC. All rights reserved.